STARLINK-32034, 60297

Orbit data source: Space-Track

STARLINK-32034, 60297 is a payload satellite owned by SpaceX/Seattle (US) in LEO that was launched on Sun, 28 Jul 2024 UTC via an FALCON 9 launch vehicle from the Air Force Eastern Test Range (AFETR). Payload-class satellites include a variety of spacecraft equipped with specific instruments for various scientific and technological missions. These include communications satellites like Starlink; space stations such as the ISS; scientific satellites like the Hubble; Earth observation satellites from companies like Planet Labs, Umbra, and HawkEye 360; GPS; miniature CubeSats for education and research; and military/defense satellites.

Loading next visibility...
Identifier
60297, 2024-132V
Orbit
LEO
Country
Flag of USUS
Related business
Manufacturer
SpaceX/Seattle
Mission
Operational Commercial Communications
Bus & Motor
STARLINK V2M, Unknown motor
Mass
730 kg wet, ~700 kg dry
Launch date (UTC)
2024-07-28 (2 years ago)
Launch vehicle
FALCON 9
Launch site
Air Force Eastern Test Range (AFETR)
Object type
Payload
Rocket body
Debris
Shape & HBR
Box + 2 Pan, 17.7 m
Radar Cross Section
33.884 m², Large (>1 m²)

Expand to show TLE details & history
Last TLE update: 1 day ago

TLE from 1 day ago
0 STARLINK-32034
1 60297U 24132V   26254.33918332  .00001114  00000-0  47666-4 0  9997
2 60297  53.1590 268.7279 0001132  90.4791 269.6340 15.31700420120003
Epoch: 2026-09-11T08:08Z
TLE epoch observation values (Epoch: 2026-09-11T08:08:25.438Z)
Latitude
-0.00005°
Longitude
156.25791°
Altitude
471.644 km
Speed
7.631 km/s
True Right ascension
17h 54m 54s
True Declination
0° 00' 00"
Sunlit
Object was in daylight at epoch
Visualization orbit readout
Latitude
Unknown
Longitude
Unknown
Altitude
Unknown
Speed
Unknown
Apparent Right ascension
Unknown
Apparent Declination
Unknown
Sunlit
N/A
Visualization observer readout
Local Sidereal Time
02:57:40
Azimuth
Unknown
Elevation
Unknown
Doppler factor
Unknown
Orbital elements
Apogee altitude
471.771 km
Perigee altitude
470.22 km
Semi-major axis
6,849.132 km
Eccentricity
0.00011
Inclination
53.159°
RAAN
268.7279°
Arg. of periapsis
90.4791°
True anomaly
269.62103°
Mean anomaly
269.634°
Eccentric anomaly
269.62751°
Mean motion
3.82904 °/min
Orbital period
94.02 mins
BSTAR
0.000047666
Loading maneuver chart data...
Computing Atmospheric mass density...
Loading historical data...
Loading historical data...
Loading historical data...
Loading historical data...
Loading historical data...
Loading historical data...
Loading historical data...

Documentation

Showing up to 5 results
|